AirNav   Air Wisconsin pilot careers
 
 819 users online  

S89 Craigmont Municipal Airport
Craigmont, Idaho, USA

GOING TO CRAIGMONT?


FAA INFORMATION EFFECTIVE 28 MARCH 2019

Location

FAA Identifier: S89
Lat/Long: 46-14-51.8000N / 116-28-45.7000W
46-14.863333N / 116-28.761667W
46.2477222 / -116.4793611
(estimated)
Elevation: 3805 ft. / 1160 m (estimated)
Variation: 18E (1985)
Time zone: UTC -7 (UTC -8 during Standard Time)
Zip code: 83523

Airport Operations

Airport use: Open to the public
Activation date: 12/1946
Control tower: no
ARTCC: SEATTLE CENTER
FSS: BOISE FLIGHT SERVICE STATION
NOTAMs facility: BOI (NOTAM-D service available)
Attendance: UNATNDD
ARPT CLOSED AFTER HEAVY SNOWFALL.
Wind indicator: yes
Segmented circle: no
Lights: ACTVT MIRL RY 07/25-CTAF
Beacon: white-green (lighted land airport)
ACTVT BCN-CTAF

Airport Communications

CTAF: 122.9

Nearby radio navigation aids

VOR radial/distance  VOR name  Freq  Var
MQGr096/18.1NEZ PERCE VOR/DME108.2020E

Airport Services

Parking: tiedowns
Bottled oxygen: NONE
Bulk oxygen: NONE

Runway Information

Runway 7/25

Dimensions: 2800 x 50 ft. / 853 x 15 m
Surface: asphalt, in good condition
Runway edge lights: medium intensity
Operational restrictions: RECOMMEND LANDING RY 25; DEPARTING RY 07; WHEN WIND CONDITIONS PERMIT.
RUNWAY 7  RUNWAY 25
Latitude: 46-14.852333N46-14.873333N
Longitude: 116-29.094000W116-28.430500W
Gradient: 2.5%2.5%
Traffic pattern: leftleft
Displaced threshold: no300 ft.
RWY 25 THLD DSPLCD 300 FT NGTS; MKD WITH DSPLCD THLD LIGHTS AND RUNWAY MARKING.
Markings: basic, in fair conditionbasic, in fair condition
Obstructions: none7 ft. gnd, 200 ft. from runway
+16 FT ROAD 35 FT FM RY END ON CNTRLN.

Airport Ownership and Management from official FAA records

Ownership: Publicly-owned
Owner: CITY OF CRAIGMONT
P O BOX 250
CRAIGMONT, ID 83523-0250
Phone 208-924-5432
Manager: NONE
P O BOX 250
CRAIGMONT, ID 83523

Airport Operational Statistics

Aircraft based on the field: 2
Single engine airplanes: 2
    
Aircraft operations: avg 35/day *
94% transient general aviation
6% local general aviation
* for 12-month period ending 12 May 2016

Instrument Procedures

There are no published instrument procedures at S89.

Some nearby airports with instrument procedures:

KLWS - Lewiston-Nez Perce County Airport (23 nm W)
KGIC - Idaho County Airport (24 nm SE)
KPUW - Pullman/Moscow Regional Airport (40 nm NW)
KALW - Walla Walla Regional Airport (76 nm W)
KMYL - Mc Call Municipal Airport (83 nm S)
 
Loc | Ops | Rwys | IFR | FBO | Links
Com | Nav | Svcs | Stats | Notes
Area around S89 (Craigmont Municipal Airport)
 
Road maps at: MapQuest Bing Google
 
Aerial photo
No photo
 
Sectional chart

 
Airport distance calculator
Flying to Craigmont Municipal Airport? Find the distance to fly.

From to S89

Sunrise and sunset
Times for 21-Apr-2019
 Local
(UTC-7)
 Zulu
(UTC)
Morning civil twilight05:1712:17
Sunrise05:4912:49
Sunset19:4002:40
Evening civil twilight20:1203:12

Current date and time
Zulu (UTC)  21-Apr-2019 13:54:17
Local (UTC-7)  21-Apr-2019 06:54:17
 
METAR
KLWS 
23nm W 
211256Z 17006KT 10SM CLR 07/03 A3008 RMK AO2 SLP188 T00720033
KGIC 
24nm SE 
211335Z AUTO 09004KT 10SM OVC032 07/04 A3008 RMK AO1
KP69 
37nm E 
211252Z AUTO 00000KT 09/09 A3006 RMK AO1 SLP183 T00890089 $
KPUW 
40nm NW 
211253Z AUTO 27009KT 10SM CLR 06/04 A3009 RMK AO2 SLP196 T00560039
TAF
KLWS 
23nm W 
211127Z 2112/2212 22004KT P6SM SCT090 BKN150 FM211800 30007KT P6SM SCT060 SCT100 FM220300 VRB04KT P6SM SKC
NOTAMs
Click for the latest NOTAMs
NOTAMs are issued by the DoD/FAA and will open in a separate window not controlled by AirNav.

 

 
 

Would you like to see your business listed on this page?

 If your business provides an interesting product or service to pilots, flight crews, aircraft, or users of the Craigmont Municipal Airport, you should consider listing it here.  To start the listing process, click on the button below
 
Add a business
 

Other Pages about Craigmont Municipal Airport

Update a link
 
Copyright © AirNav, LLC. All rights reserved. Privacy Policy  Contact